Back to catalog

IRIDIUM 33 DEB

AlivePO
NORAD 33960·DEBRIS·🇺🇸 United States

Launched Sep 14, 1997 from Baikonur Cosmodrome

Loading…

Next Passes (next 24 hours)

TLE

FreshSource: Space-Track

Epoch: Sep 13, 2026, 17:55 UTC

1 33960U 97051BV  26256.74681233  .00010353  00000-0  91823-3 0  9996
2 33960  86.2587 158.5653 0002364  96.5216 317.3403 14.96094891929671

Track IRIDIUM 33 DEB in real time with AllMySat

Download on the App Store